Wind_Speed
30 30 32 27 27 29 30 29 23 24 28 32 36 38 37 36 39 37 40 41 39 33
28 28 26 23 22 24 26 25 24 28 26 27 29 30 33 36 37 38 40 40 38 33
7 10 19 23 20 18 22 20 16 13 20 25 27 33 27 29 36 33 36 35 32 36
28 25 18 14 6 13 17 18 22 15 34 40 28 33 27 38 41 26 27 32 34 39
26 26 26 23 18 13 10 7 4 16 34 25 23 23 27 32 29 40 37 35 38 38
25 24 22 19 18 18 16 14 9 4 3 2 2 5 11 22 30 35 36 37 36 34
23 21 21 19 17 15 14 14 15 14 12 9 4 3 4 6 12 20 27 29 28 29
21 19 18 17 16 14 13 11 11 12 13 13 13 13 10 10 11 12 17 19 20 24
25 23 22 19 17 16 15 13 10 9 10 12 13 15 14 13 11 12 12 14 16 17
23 27 25 24 22 22 20 16 13 10 11 11 11 11 12 14 15 15 14 16 16 18
20 22 25 24 24 25 23 21 17 14 12 11 11 10 13 16 16 17 16 16 15 18
23 24 25 28 26 26 28 25 25 22 18 15 12 10 12 13 15 17 16 15 16 16
22 24 24 22 23 24 26 30 28 27 25 22 19 17 15 14 15 17 18 17 16 15
20 19 21 23 25 26 25 27 28 29 27 26 25 23 19 16 14 16 17 16 16 13
Wind_Direction
218 221 224 221 211 209 208 216 215 223 230 238 241 244 241 239 241 238 240 237 238 232
221 227 229 226 217 217 220 223 229 230 232 237 248 252 248 240 238 241 242 243 240 233
87 210 221 218 214 206 198 190 193 223 246 239 240 237 244 253 248 235 243 241 243 243
57 62 76 84 128 215 228 252 252 261 279 261 245 258 269 278 276 225 247 253 258 248
61 59 60 60 60 57 63 96 142 237 240 255 256 253 238 240 229 252 253 251 242 243
47 51 57 62 62 59 54 56 64 56 45 5 346 257 249 249 242 241 246 245 238 241
26 31 38 43 48 47 46 44 44 46 45 36 16 327 317 276 257 255 251 255 261 260
3 7 11 17 20 22 22 22 28 29 27 24 23 15 353 318 310 290 274 268 265 269
357 353 351 348 351 351 355 356 355 358 8 10 8 7 358 345 323 302 302 299 285 282
334 337 343 343 338 333 332 333 336 330 329 339 344 348 348 343 338 329 321 307 303 293
344 338 336 334 333 329 323 312 304 301 299 311 310 325 335 339 338 337 330 314 307 295
326 325 324 322 327 328 324 316 306 298 293 288 289 284 306 321 328 326 316 316 308 303
317 316 315 315 319 320 324 316 309 299 290 289 287 277 285 306 313 314 317 312 311 304
315 312 314 313 314 315 319 317 310 298 290 282 275 270 273 286 297 302 300 297 305 304
Height
720 724 727 730 732 735 737 743 750 755 759 762 765 767 770 772 774 779 779 778 780 783
719 722 724 730 732 735 737 740 745 750 753 754 757 762 763 763 765 770 774 773 775 776
717 719 722 725 728 731 733 737 742 751 756 747 745 749 756 755 760 762 762 767 768 767
724 723 721 722 725 728 729 732 739 739 739 751 736 742 727 735 760 727 754 760 761 762
733 731 730 730 731 730 730 729 724 730 745 739 735 734 735 745 735 747 752 751 753 752
738 738 737 737 736 735 735 734 736 738 736 734 733 735 735 737 740 743 743 745 747 745
742 742 741 740 738 739 739 739 736 736 737 735 733 733 730 732 735 736 737 738 736 735
744 744 742 740 739 740 740 739 737 736 735 735 732 727 726 728 729 728 727 727 726 728
743 742 742 742 739 737 736 736 735 736 734 731 728 726 726 726 727 724 721 720 720 721
741 739 738 739 736 736 734 732 730 731 731 728 726 726 725 725 722 719 715 717 716 717
744 740 738 737 733 733 731 731 729 728 727 723 723 721 721 718 717 712 710 711 712 712
745 741 738 737 731 728 725 724 725 721 720 719 718 717 717 715 711 710 711 709 707 707
742 739 736 734 729 724 720 720 718 716 716 711 710 712 710 707 706 704 703 704 703 703
741 737 735 731 728 723 718 719 716 714 709 704 707 707 705 701 700 699 700 699 698 696